Date String (YYYY-MM-DD hh:mm:ss) UTC,Instrument flags,Ambient pressure (hPa),Sample flow (lpm),Bypass flow (lpm),Sample temperature (°C),Ambient temperature (°C),ASC tube jacket temperature (°C),LED temperature (°C),Box temperature (°C),Sample RH (%),Span deviation,Mass concentration (μg/m³),Mass concentration (μg/m³),Mass concentration (μg/m³)
DateTimeUTC,F1_M11,P_M11,Q1_M11,Q2_M11,T1_M11,T2_M11,T3_M11,T4_M11,T5_M11,U1_M11,ZSPAN_M11,X0_M11,X2_M11,X1_M11
2023-05-10 02:00:00,,0827.4,4.99,0.00,29.7,28.2,00.0,38.1,31.5,24.9,0003.8,0015.50,0006.30,0004.81
2023-05-10 02:01:00,,0827.4,4.98,0.00,29.8,28.3,00.0,38.1,31.5,24.8,0004.1,0015.22,0006.32,0004.82
2023-05-10 02:02:00,,0827.4,5.00,0.00,29.8,28.4,00.0,38.1,31.6,24.7,0003.9,0015.36,0006.37,0004.83
2023-05-10 02:03:00,,0827.4,5.00,0.00,29.8,28.5,00.0,38.1,31.6,24.6,0003.5,0015.07,0006.40,0004.83
2023-05-10 02:04:00,,0827.4,5.01,0.00,29.8,28.5,00.0,38.1,31.6,24.6,0003.3,0014.91,0006.39,0004.83
2023-05-10 02:05:00,,0827.4,5.01,0.00,29.9,28.6,00.0,38.2,31.7,24.6,0002.7,0015.50,0006.35,0004.82
2023-05-10 02:06:00,,0827.4,4.98,0.00,29.9,28.3,00.0,38.2,31.6,24.6,0002.5,0016.03,0006.40,0004.81
2023-05-10 02:07:00,,0827.4,5.00,0.00,29.9,26.5,00.0,38.1,31.3,24.6,0002.2,0016.39,0006.43,0004.82
2023-05-10 02:08:00,,0827.4,5.00,0.00,29.8,25.6,00.0,38.0,31.1,24.6,0002.4,0016.34,0006.42,0004.82
2023-05-10 02:09:00,,0827.4,5.01,0.00,29.7,25.7,00.0,38.0,31.0,24.8,0002.4,0015.88,0006.42,0004.82
2023-05-10 02:10:00,,0827.4,5.02,0.00,29.6,26.0,00.0,38.0,31.0,24.8,0002.8,0016.05,0006.40,0004.80
2023-05-10 02:11:00,,0827.4,5.00,0.00,29.6,26.4,00.0,38.0,31.1,24.9,0003.3,0015.61,0006.36,0004.81
2023-05-10 02:12:00,,0827.4,5.00,0.00,29.6,26.7,00.0,38.0,31.2,24.9,0003.4,0014.92,0006.33,0004.82
2023-05-10 02:13:00,,0827.5,5.00,0.00,29.6,27.1,00.0,38.0,31.2,24.9,0003.5,0015.01,0006.35,0004.83
2023-05-10 02:14:00,,0827.7,5.01,0.00,29.6,27.3,00.0,38.0,31.3,24.9,0003.4,0014.67,0006.33,0004.85
2023-05-10 02:15:00,,0827.5,5.00,0.00,29.6,27.6,00.0,38.0,31.3,24.9,0004.2,0014.12,0006.32,0004.85
2023-05-10 02:16:00,,0827.6,4.99,0.00,29.6,27.8,00.0,38.0,31.3,24.9,0004.4,0013.56,0006.31,0004.85
2023-05-10 02:17:00,,0827.6,5.00,0.00,29.7,27.9,00.0,38.0,31.4,24.9,0002.8,0013.06,0006.29,0004.85
2023-05-10 02:18:00,,0827.5,5.00,0.00,29.7,28.1,00.0,38.0,31.4,24.8,0000.0,0012.99,0006.30,0004.84
2023-05-10 02:19:00,,0827.6,5.00,0.00,29.7,28.2,00.0,38.0,31.5,24.8,0000.0,0013.20,0006.27,0004.81
2023-05-10 02:20:00,,0827.7,5.00,0.00,29.7,28.3,00.0,38.0,31.5,24.8,0000.0,0014.43,0006.31,0004.81
2023-05-10 02:21:00,,0827.7,5.00,0.00,29.8,28.4,00.0,38.1,31.5,24.8,0000.0,0016.24,0006.37,0004.82
2023-05-10 02:22:00,,0827.7,5.00,0.00,29.8,28.5,00.0,38.1,31.6,24.7,0000.8,0016.32,0006.36,0004.81
2023-05-10 02:23:00,,0827.7,5.01,0.00,29.8,28.5,00.0,38.1,31.6,24.7,0003.4,0016.74,0006.42,0004.81
2023-05-10 02:24:00,,0827.7,5.01,0.00,29.9,28.6,00.0,38.1,31.7,24.6,0003.2,0018.18,0006.42,0004.80
2023-05-10 02:25:00,,0827.7,4.99,0.00,29.9,28.5,00.0,38.1,31.7,24.6,0002.9,0019.23,0006.45,0004.79
2023-05-10 02:26:00,,0827.6,5.00,0.00,29.9,26.9,00.0,38.1,31.4,24.6,0003.0,0019.39,0006.46,0004.78
2023-05-10 02:27:00,,0827.5,5.00,0.00,29.8,25.6,00.0,38.0,31.1,24.7,0003.0,0020.35,0006.49,0004.79
2023-05-10 02:28:00,,0827.5,5.01,0.00,29.7,25.6,00.0,38.0,31.0,24.8,0002.7,0020.86,0006.53,0004.80
2023-05-10 02:29:00,,0827.4,5.01,0.00,29.6,25.9,00.0,38.0,31.0,24.9,0002.6,0021.22,0006.54,0004.81
2023-05-10 02:30:00,,0827.5,4.99,0.00,29.6,26.2,00.0,38.0,31.0,25.0,0002.8,0021.74,0006.59,0004.83
2023-05-10 02:31:00,,0827.6,4.99,0.00,29.6,26.6,00.0,38.0,31.1,25.0,0002.9,0021.38,0006.54,0004.83
2023-05-10 02:32:00,,0827.6,5.00,0.00,29.6,26.9,00.0,38.0,31.2,25.0,0003.4,0019.59,0006.52,0004.82
2023-05-10 02:33:00,,0827.7,5.01,0.00,29.6,27.2,00.0,38.0,31.2,25.0,0003.6,0019.73,0006.52,0004.83
2023-05-10 02:34:00,,0827.7,5.00,0.00,29.6,27.5,00.0,38.0,31.3,25.0,0003.4,0019.64,0006.48,0004.84
2023-05-10 02:35:00,,0827.7,4.99,0.00,29.6,27.7,00.0,38.0,31.3,25.0,0003.1,0018.95,0006.43,0004.82
2023-05-10 02:36:00,,0827.7,5.01,0.00,29.6,27.8,00.0,38.0,31.3,24.9,0003.1,0018.53,0006.40,0004.83
2023-05-10 02:37:00,,0827.8,5.00,0.00,29.6,28.0,00.0,38.0,31.4,24.9,0002.8,0019.66,0006.46,0004.85
2023-05-10 02:38:00,,0827.8,4.99,0.00,29.7,28.1,00.0,38.0,31.4,24.8,0003.3,0019.32,0006.47,0004.86
2023-05-10 02:39:00,,0827.8,5.00,0.00,29.7,28.2,00.0,38.0,31.4,24.8,0003.5,0020.40,0006.44,0004.85
2023-05-10 02:40:00,,0827.8,5.00,0.00,29.7,28.3,00.0,38.0,31.5,24.8,0003.5,0021.17,0006.44,0004.84
2023-05-10 02:41:00,,0827.7,5.01,0.00,29.8,28.4,00.0,38.0,31.5,24.7,0003.5,0022.03,0006.48,0004.85
2023-05-10 02:42:00,,0827.7,5.01,0.00,29.8,28.5,00.0,38.1,31.5,24.7,0003.5,0021.23,0006.50,0004.87
2023-05-10 02:43:00,,0827.7,5.01,0.00,29.8,28.5,00.0,38.1,31.6,24.7,0003.0,0021.00,0006.48,0004.87
2023-05-10 02:44:00,,0827.8,4.99,0.00,29.8,28.6,00.0,38.1,31.6,24.6,0002.5,0021.06,0006.48,0004.88
2023-05-10 02:45:00,,0827.8,4.98,0.00,29.9,28.7,00.0,38.1,31.7,24.5,0002.1,0021.59,0006.47,0004.88
2023-05-10 02:46:00,,0827.8,5.00,0.00,29.9,28.4,00.0,38.2,31.6,24.5,0002.3,0020.95,0006.50,0004.90
2023-05-10 02:47:00,,0827.8,5.00,0.00,29.9,26.7,00.0,38.1,31.3,24.7,0002.3,0020.75,0006.54,0004.91
2023-05-10 02:48:00,,0827.9,5.00,0.00,29.8,25.7,00.0,38.0,31.1,24.8,0002.2,0019.88,0006.47,0004.90
2023-05-10 02:49:00,,0827.8,5.01,0.00,29.7,25.7,00.0,38.0,31.0,25.0,0001.9,0019.62,0006.47,0004.90
2023-05-10 02:50:00,,0827.9,5.02,0.00,29.6,26.0,00.0,38.0,31.0,25.1,0001.3,0018.24,0006.44,0004.90
2023-05-10 02:51:00,,0827.8,4.99,0.00,29.6,26.4,00.0,38.0,31.1,25.2,0001.6,0017.26,0006.41,0004.91
2023-05-10 02:52:00,,0827.8,5.00,0.00,29.6,26.7,00.0,38.0,31.1,25.2,0001.5,0016.15,0006.39,0004.91
2023-05-10 02:53:00,,0828.0,5.00,0.00,29.6,27.1,00.0,38.0,31.2,25.1,0001.1,0016.42,0006.35,0004.91
2023-05-10 02:54:00,,0827.8,5.01,0.00,29.6,27.3,00.0,38.0,31.2,25.2,0000.9,0016.52,0006.35,0004.92
2023-05-10 02:55:00,,0827.9,5.00,0.00,29.6,27.6,00.0,38.0,31.3,25.1,0001.3,0015.91,0006.29,0004.90
2023-05-10 02:56:00,,0827.8,4.99,0.00,29.6,27.8,00.0,38.0,31.3,25.1,0001.8,0017.06,0006.30,0004.90
2023-05-10 02:57:00,,0827.9,5.00,0.00,29.6,27.9,00.0,38.0,31.4,25.1,0001.9,0018.37,0006.35,0004.92
2023-05-10 02:58:00,,0828.0,5.00,0.00,29.7,28.1,00.0,38.0,31.4,25.0,0001.9,0018.58,0006.32,0004.92
2023-05-10 02:59:00,,0828.1,5.01,0.00,29.7,28.2,00.0,38.0,31.4,25.0,0002.2,0018.24,0006.34,0004.92
